Madison, SD

4:02 AM CDT on March 24, 2017 (GMT -0500)
Madison Municipal

Weather History for KMDS - October, 2013

Change the Weather History Date:

Monday, October 7, 2013

  Actual Average Record
Temperature  
Mean Temperature 54 °F -  
Max Temperature 69 °F 61 °F 78 °F (2011)
Min Temperature 39 °F 38 °F 32 °F (2016)
Degree Days  
Heating Degree Days 11    
Growing Degree Days 4 (Base 50)    
Moisture  
Dew Point 42 °F    
Average Humidity 69    
Maximum Humidity 100    
Minimum Humidity 35    
Precipitation  
Precipitation 0.00 in - - ()
Sea Level Pressure  
Sea Level Pressure 29.95 in    
Wind  
Wind Speed 9 mph (SW)    
Max Wind Speed 12 mph    
Max Gust Speed -    
Visibility 10 miles    
Events      
Averages and records for this station are not official NWS values.
T = Trace of Precipitation, MM = Missing Value Source: NWS Daily Summary

Daily Weather History Graph

Daily Weather History Graph

Search for Another Location

Airport or City:

Trip Planner

Search our weather history database for the weather conditions in past years. The results will help you decide how hot, cold, wet, or windy it might be!

Date:

Astronomy

Oct. 07, 2013 Rise Set
Actual Time 7:33 AM CDT 6:57 PM CDT
Civil Twilight 7:04 AM CDT 7:26 PM CDT
Nautical Twilight 6:31 AM CDT 8:00 PM CDT
Astronomical Twilight 5:57 AM CDT 8:33 PM CDT
Moon 10:31 AM CDT (10/7) 8:36 PM CDT (10/7)
Length of Visible Light 12h 22m
Length of Day
11h 24m
Waxing Crescent, 9% of the Moon is Illuminated
Oct 7
Waxing Crescent
Oct 11
First Quarter
Oct 18
Full
Oct 26
Last Quarter
Nov 3
New

Hourly Weather History & Observations

Time (CDT) Temp. Windchill Dew Point Humidity Pressure Visibility Wind Dir Wind Speed Gust Speed Precip Events Conditions
12:10 AM 46.4 °F 41.1 °F 37.4 °F 71% 29.97 in 10.0 mi WNW 11.5 mph - N/A   Clear
12:30 AM 46.4 °F 41.1 °F 39.2 °F 76% 29.97 in 10.0 mi WNW 11.5 mph - N/A   Clear
12:50 AM 46.4 °F 41.1 °F 39.2 °F 76% 29.97 in 10.0 mi WNW 11.5 mph - N/A   Clear
1:10 AM 46.4 °F 41.1 °F 39.2 °F 76% 29.96 in 10.0 mi WNW 11.5 mph - N/A   Clear
1:30 AM 46.4 °F 41.1 °F 39.2 °F 76% 29.96 in 10.0 mi WNW 11.5 mph - N/A   Clear
1:50 AM 44.6 °F 38.8 °F 39.2 °F 81% 29.96 in 10.0 mi WNW 11.5 mph - N/A   Clear
2:10 AM 46.4 °F 41.5 °F 39.2 °F 76% 29.96 in 10.0 mi West 10.4 mph - N/A   Clear
2:30 AM 44.6 °F 39.2 °F 39.2 °F 81% 29.96 in 10.0 mi West 10.4 mph - N/A   Clear
2:50 AM 44.6 °F 38.8 °F 39.2 °F 81% 29.95 in 10.0 mi West 11.5 mph - N/A   Clear
3:10 AM 44.6 °F 39.2 °F 39.2 °F 81% 29.95 in 10.0 mi West 10.4 mph - N/A   Clear
3:30 AM 44.6 °F 39.2 °F 39.2 °F 81% 29.95 in 10.0 mi West 10.4 mph - N/A   Clear
3:50 AM 42.8 °F 37.0 °F 41.0 °F 93% 29.95 in 10.0 mi West 10.4 mph - N/A   Clear
4:10 AM 42.8 °F 37.5 °F 41.0 °F 93% 29.95 in 10.0 mi West 9.2 mph - N/A   Clear
4:30 AM 41.0 °F 35.2 °F 41.0 °F 100% 29.95 in 10.0 mi West 9.2 mph - N/A   Clear
4:50 AM 41.0 °F 35.8 °F 41.0 °F 100% 29.95 in 10.0 mi West 8.1 mph - N/A   Clear
5:10 AM 41.0 °F 35.8 °F 41.0 °F 100% 29.95 in 10.0 mi West 8.1 mph - N/A   Clear
5:30 AM 41.0 °F 34.7 °F 41.0 °F 100% 29.95 in 10.0 mi West 10.4 mph - N/A   Clear
5:50 AM 41.0 °F 34.7 °F 41.0 °F 100% 29.95 in 10.0 mi West 10.4 mph - N/A   Clear
6:10 AM 41.0 °F 35.2 °F 41.0 °F 100% 29.95 in 10.0 mi West 9.2 mph - N/A   Clear
6:30 AM 41.0 °F 35.8 °F 41.0 °F 100% 29.95 in 10.0 mi West 8.1 mph - N/A   Clear
6:50 AM 41.0 °F 35.8 °F 41.0 °F 100% 29.95 in 10.0 mi West 8.1 mph - N/A   Clear
7:10 AM 41.0 °F 35.8 °F 41.0 °F 100% 29.96 in 10.0 mi West 8.1 mph - N/A   Clear
7:30 AM 39.2 °F 35.0 °F 39.2 °F 100% 29.97 in 10.0 mi WNW 5.8 mph - N/A   Clear
7:50 AM 39.2 °F 34.2 °F 39.2 °F 100% 29.97 in 10.0 mi West 6.9 mph - N/A   Clear
8:10 AM 39.2 °F 35.0 °F 39.2 °F 100% 29.98 in 10.0 mi West 5.8 mph - N/A   Clear
8:30 AM 41.0 °F 37.1 °F 41.0 °F 100% 29.98 in 10.0 mi West 5.8 mph - N/A   Clear
8:50 AM 44.6 °F 41.4 °F 42.8 °F 93% 29.98 in 10.0 mi West 5.8 mph - N/A   Clear
9:10 AM 44.6 °F 41.4 °F 44.6 °F 100% 29.98 in 10.0 mi NW 5.8 mph - N/A   Clear
9:30 AM 46.4 °F 44.3 °F 44.6 °F 93% 29.99 in 10.0 mi West 4.6 mph - N/A   Clear
9:50 AM 48.2 °F - 44.6 °F 87% 30.00 in 10.0 mi WNW 5.8 mph - N/A   Clear
10:10 AM 50.0 °F - 44.6 °F 82% 30.00 in 10.0 mi West 4.6 mph - N/A   Clear
10:30 AM 51.8 °F - 44.6 °F 76% 30.00 in 10.0 mi Calm Calm - N/A   Clear
10:50 AM 55.4 °F - 42.8 °F 63% 30.00 in 10.0 mi Calm Calm - N/A   Clear
11:10 AM 55.4 °F - 44.6 °F 67% 30.00 in 10.0 mi SSW 3.5 mph - N/A   Clear
11:30 AM 57.2 °F - 44.6 °F 63% 29.99 in 10.0 mi SW 4.6 mph - N/A   Clear
11:50 AM 59.0 °F - 44.6 °F 59% 30.00 in 10.0 mi SW 4.6 mph - N/A   Clear
12:10 PM 62.6 °F - 44.6 °F 52% 30.00 in 10.0 mi SSW 3.5 mph - N/A   Clear
12:30 PM 62.6 °F - 42.8 °F 48% 29.99 in 10.0 mi SSW 3.5 mph - N/A   Clear
12:50 PM 64.4 °F - 42.8 °F 45% 29.99 in 10.0 mi SSW 6.9 mph - N/A   Clear
1:10 PM 66.2 °F - 44.6 °F 46% 29.98 in 10.0 mi SW 8.1 mph - N/A   Clear
1:30 PM 66.2 °F - 44.6 °F 46% 29.98 in 10.0 mi South 6.9 mph - N/A   Clear
1:50 PM 66.2 °F - 44.6 °F 46% 29.97 in 10.0 mi WSW 8.1 mph - N/A   Clear
2:10 PM 68.0 °F - 44.6 °F 43% 29.97 in 10.0 mi WSW 9.2 mph - N/A   Clear
2:30 PM 68.0 °F - 44.6 °F 43% 29.96 in 10.0 mi SW 10.4 mph - N/A   Clear
2:50 PM 68.0 °F - 44.6 °F 43% 29.96 in 10.0 mi SW 9.2 mph - N/A   Clear
3:10 PM 68.0 °F - 44.6 °F 43% 29.96 in 10.0 mi SW 8.1 mph - N/A   Clear
3:30 PM 68.0 °F - 44.6 °F 43% 29.95 in 10.0 mi WSW 8.1 mph - N/A   Clear
3:50 PM 68.0 °F - 42.8 °F 40% 29.95 in 10.0 mi WSW 8.1 mph - N/A   Clear
4:10 PM 69.8 °F - 44.6 °F 40% 29.94 in 10.0 mi WSW 5.8 mph - N/A   Clear
4:30 PM 69.8 °F - 42.8 °F 38% 29.94 in 10.0 mi WSW 6.9 mph - N/A   Clear
4:50 PM 69.8 °F - 42.8 °F 38% 29.93 in 10.0 mi SW 6.9 mph - N/A   Clear
5:10 PM 69.8 °F - 41.0 °F 35% 29.93 in 10.0 mi SW 5.8 mph - N/A   Clear
5:30 PM 69.8 °F - 41.0 °F 35% 29.93 in 10.0 mi SSW 8.1 mph - N/A   Clear
5:50 PM 68.0 °F - 42.8 °F 40% 29.92 in 10.0 mi SSW 8.1 mph - N/A   Clear
6:10 PM 68.0 °F - 42.8 °F 40% 29.92 in 10.0 mi South 8.1 mph - N/A   Clear
6:30 PM 66.2 °F - 42.8 °F 43% 29.92 in 10.0 mi South 6.9 mph - N/A   Clear
6:50 PM 64.4 °F - 42.8 °F 45% 29.92 in 2.5 mi South 5.8 mph - N/A   Haze
7:10 PM 62.6 °F - 42.8 °F 48% 29.92 in 10.0 mi South 5.8 mph - N/A   Clear
7:30 PM 59.0 °F - 42.8 °F 55% 29.92 in 10.0 mi South 5.8 mph - N/A   Clear
7:50 PM 59.0 °F - 41.0 °F 51% 29.92 in 10.0 mi South 5.8 mph - N/A   Clear
8:10 PM 57.2 °F - 42.8 °F 59% 29.92 in 10.0 mi South 6.9 mph - N/A   Clear
8:30 PM 57.2 °F - 42.8 °F 59% 29.93 in 10.0 mi South 5.8 mph - N/A   Clear
8:50 PM 55.4 °F - 42.8 °F 63% 29.93 in 10.0 mi South 5.8 mph - N/A   Clear
9:10 PM 55.4 °F - 42.8 °F 63% 29.92 in 10.0 mi South 4.6 mph - N/A   Clear
9:30 PM 53.6 °F - 42.8 °F 67% 29.92 in 10.0 mi South 6.9 mph - N/A   Clear
9:50 PM 53.6 °F - 44.6 °F 72% 29.92 in 10.0 mi South 5.8 mph - N/A   Clear
10:10 PM 53.6 °F - 44.6 °F 72% 29.91 in 10.0 mi SSE 9.2 mph - N/A   Clear
10:30 PM 53.6 °F - 44.6 °F 72% 29.90 in 10.0 mi SSE 10.4 mph - N/A   Clear
10:50 PM 53.6 °F - 44.6 °F 72% 29.90 in 10.0 mi SSE 10.4 mph - N/A   Clear
11:10 PM 53.6 °F - 44.6 °F 72% 29.89 in 10.0 mi SSE 9.2 mph - N/A   Clear
11:30 PM 53.6 °F - 44.6 °F 72% 29.89 in 10.0 mi SSE 6.9 mph - N/A   Clear
11:50 PM 53.6 °F - 42.8 °F 67% 29.89 in 10.0 mi SSE 10.4 mph - N/A   Clear